ニート彗星

215P/NEAT (2019)

English version
Home page
Updated on September 18, 2021

---------------------------------------------------------------------

・ プロフィール

・ 写真集

・ 軌道要素

Epoch 2020 May 31.0 TT = JDT 2459000.5
T 2019 Nov. 18.21434 TT                                 Spoto
q   3.6048278            (2000.0)            P               Q
n   0.10946695     Peri.  262.06679     +0.73777014     +0.65737925
a   4.3279348      Node    56.68361     -0.52409978     +0.70106810
e   0.1670790      Incl.   10.58143     -0.42545817     +0.27632598
P   9.00
From 418 observations 2001 May 22-2020 Aug. 26, mean residual 0".6.
     Nongravitational parameters A1 = -1.43, A2 = -1.2740.

・ 光度変化

        m1 = 1.0 + 5 logΔ + 25.0 log r(t - 150)

---------------------------------------------------------------------

軌道要素はM.P.E.C. 2020-S188に掲載されたものです。
光度グラフはComet for Windowsで作成したものです。

---------------------------------------------------------------------

Copyright(C) Seiichi Yoshida (comet@aerith.net). All rights reserved.